Flag for Germany Weather past 2 weeks in Lutherstadt Eisleben, Saxony-Anhalt, Germany

Now
37 °F

Overcast.


Feels Like: 34 °F
Forecast: 34 / 46 °F
Wind: 3 mph from West

Location: Leipzig-Schkeuditz

Current Time: Mar 5, 2015 at 11:54:21 PM

Latest Report: Mar 5, 2015 at 11:00 PM


Visibility: 31 mi

Pressure: 30.60 "Hg

Humidity: 86%

Dew point: 33 °F

Location of Lutherstadt EislebenLocation

Historic Weather in Lutherstadt Eisleben — Graph

°F

Lutherstadt Eisleben temperature yesterday

Maximum temperature yesterday: 43 °F (at 12:00 PM)
Minimum temperature yesterday: 32 °F (at 7:00 AM)
Average temperature yesterday: 38 °F

Past Weeks' High & Low Weather Summary

 TemperatureHumidityPressure
High51 °F (Feb 20, 3:00 PM)97% (Feb 22, 7:00 AM)30.64 "Hg (Feb 22, 7:00 AM)
Low27 °F (Feb 20, 4:00 AM)36% (Feb 26, 5:00 PM)29.41 "Hg (Feb 21, 1:00 PM)
Average38 °F76%29.95 "Hg
* Reported Feb 18 9:00 PM — Mar 5 9:00 PM, Lutherstadt Eisleben, Weather by CustomWeather, © 2015

Note: Actual official high and low records may vary slightly from our data, if they occured in-between our weather recording intervals... More about our weather records

Advertising

Lutherstadt Eisleben weather history for previous 24 hours

 ConditionsComfort  
Time TempWeatherWind HumidityBarometerVisibility
9:00 PM
Thu, Mar 5
40 °FOvercast.2 mph80%30.58 "Hg31 mi
8:00 PM40 °FOvercast.2 mph80%30.58 "Hg31 mi
7:00 PM40 °FPassing clouds.5 mph78%30.57 "Hg31 mi
6:00 PM40 °FOvercast.3 mph79%30.55 "Hg31 mi
5:00 PM42 °FOvercast.5 mph71%30.55 "Hg31 mi
4:00 PM42 °FSprinkles. Overcast.6 mph71%30.54 "Hg25 mi
3:00 PM42 °FOvercast.3 mph73%30.54 "Hg31 mi
2:00 PM42 °FOvercast.6 mph70%30.54 "Hg31 mi
1:00 PM41 °FOvercast.6 mph74%30.55 "Hg19 mi
12:00 PM41 °FOvercast.7 mph73%30.54 "Hg16 mi
11:00 AM40 °FPartly sunny.6 mph75%30.54 "Hg16 mi
9:00 AM36 °FOvercast.5 mph88%30.53 "Hg12 mi
8:00 AM35 °FPartly sunny.6 mph87%30.49 "Hg14 mi
7:00 AM36 °FLow clouds.8 mph94%30.45 "Hg12 mi
6:00 AM36 °FLight rain. Low clouds.7 mph97%30.42 "Hg12 mi
5:00 AM35 °FLight rain. Low clouds.6 mph97%30.39 "Hg6 mi
3:00 AM36 °FLight rain. Low clouds.8 mph94%30.34 "Hg5 mi
2:00 AM37 °FLight rain. Overcast.6 mph93%30.32 "Hg11 mi
1:00 AM36 °FLight rain. Low clouds.7 mph93%30.30 "Hg12 mi
12:00 AM37 °FOvercast.8 mph87%30.29 "Hg19 mi
11:00 PM
Wed, Mar 4
36 °FPassing clouds.7 mph87%30.27 "Hg19 mi
Weather by CustomWeather, © 2015

See weather overviewHow to use our weather pages